GW6548 Weather Reports


Display with metric or nautical units.
time (UTC)temp
F
wind
direction
speed
MPH
gust
MPH
rain 1hr
in
rain 24hr
in
rain mn
in
humidity
%
barometer
mb
20260505163046 56 16 1.0 3.0 0.03 0.03 0.03 81 1011.1
20260505162110 56 337 1.0 3.0 0.03 0.03 0.03 85 1011.2
20260505161110 55 346 2.0 3.0 0.03 0.03 0.03 84 1011.2
20260505153104 60 334 4.0 11.0 0.00 0.00 0.00 59 1011.1
20260505152105 61 320 5.0 13.0 0.00 0.00 0.00 53 1010.4
20260505151129 62 304 4.0 16.0 0.00 0.00 0.00 53 1010.0
20260505150113 65 104 1.0 7.0 0.00 0.00 0.00 39 1009.5
20260505130127 65 149 5.0 10.0 0.00 0.00 0.00 40 1009.8
20260505124032 65 108 4.0 10.0 0.00 0.00 0.00 39 1009.6
20260505123056 65 116 6.0 13.0 0.00 0.00 0.00 39 1009.7
20260505122017 65 91 5.0 13.0 0.00 0.00 0.00 40 1009.7
20260505121041 65 131 6.0 14.0 0.00 0.00 0.00 39 1009.7
20260505120105 65 126 6.0 15.0 0.00 0.00 0.00 39 1009.8
20260505115025 66 121 5.0 16.0 0.00 0.00 0.00 39 1009.8
20260505114050 65 124 5.0 13.0 0.00 0.00 0.00 39 1009.9
20260505113114 66 127 8.0 14.0 0.00 0.00 0.00 40 1010.0
20260505112035 66 134 7.0 15.0 0.00 0.00 0.00 40 1010.0
20260505111059 67 151 5.0 13.0 0.00 0.00 0.00 39 1010.1
20260505102053 64 96 7.0 16.0 0.00 0.00 0.00 42 1010.4
20260505101118 64 180 5.0 13.0 0.00 0.00 0.00 43 1010.5
20260505100038 66 96 6.0 16.0 0.00 0.00 0.00 41 1010.5
20260505095103 65 119 4.0 16.0 0.00 0.00 0.00 43 1010.6
20260505094023 65 137 7.0 19.0 0.00 0.00 0.00 42 1010.7
20260505093047 63 347 3.0 9.0 0.00 0.00 0.00 45 1011.0
20260505092111 63 36 2.0 7.0 0.00 0.00 0.00 47 1011.2
20260505091032 60 109 2.0 7.0 0.00 0.00 0.00 53 1011.4
20260505090057 59 44 0.0 2.0 0.00 0.00 0.00 60 1011.5
20260505085019 58 0.0 2.0 0.00 0.00 0.00 64 1011.6
20260505084122 57 83 0.0 1.0 0.00 0.00 0.00 70 1011.6
20260505083106 56 92 0.0 2.0 0.00 0.00 0.00 75 1011.9
20260505082106 56 98 1.0 4.0 0.00 0.00 0.00 75 1011.9
20260505081050 55 0.0 1.0 0.00 0.00 0.00 76 1012.2
20260505080155 54 0.0 1.0 0.00 0.00 0.00 79 1012.2
20260505075035 53 0.0 0.0 0.00 0.00 0.00 81 1012.3
20260505074100 53 0.0 0.0 0.00 0.00 0.00 83 1012.6
20260505073020 53 0.0 0.0 0.00 0.00 0.00 84 1012.8
20260505072045 53 278 0.0 2.0 0.00 0.00 0.00 82 1012.8
20260505071109 53 346 0.0 1.0 0.00 0.00 0.00 82 1012.8
20260505070029 53 338 0.0 1.0 0.00 0.00 0.00 81 1012.9
20260505065135 53 0.0 1.0 0.00 0.00 0.00 83 1012.9
20260505064120 53 317 0.0 1.0 0.00 0.00 0.00 82 1012.9
20260505063119 53 310 1.0 3.0 0.00 0.00 0.00 81 1012.9
20260505062103 53 309 1.0 2.0 0.00 0.00 0.00 81 1012.9
20260505061104 53 3 0.0 1.0 0.00 0.00 0.00 80 1013.0
20260505060128 53 294 0.0 1.0 0.00 0.00 0.00 79 1012.8
20260505055112 53 350 0.0 1.0 0.00 0.00 0.00 78 1012.7
20260505054033 53 7 0.0 2.0 0.00 0.00 0.00 77 1012.4
20260505053057 53 347 0.0 2.0 0.00 0.00 0.00 76 1012.3
20260505052058 53 337 1.0 3.0 0.00 0.00 0.00 75 1012.2
20260505051042 53 275 1.0 4.0 0.00 0.00 0.00 74 1012.2
20260505050106 53 339 1.0 3.0 0.00 0.00 0.00 72 1012.0
20260505041101 60 50 2.0 8.0 0.00 0.00 0.00 41 1011.2
20260505035047 60 44 3.0 8.0 0.00 0.00 0.00 39 1011.2
20260505034111 60 352 2.0 7.0 0.00 0.00 0.00 39 1011.3
20260505033030 60 46 3.0 13.0 0.00 0.00 0.00 39 1011.4
20260505032055 60 1 2.0 6.0 0.00 0.00 0.00 38 1011.6
20260505031119 61 25 3.0 10.0 0.00 0.00 0.00 37 1011.7
20260505030040 60 71 3.0 9.0 0.00 0.00 0.00 37 1011.7
20260505025104 61 359 1.0 8.0 0.00 0.00 0.00 37 1012.0
20260505024024 61 36 3.0 8.0 0.00 0.00 0.00 36 1012.0
20260505023129 61 110 4.0 14.0 0.00 0.00 0.00 36 1012.1
20260505022113 60 63 3.0 9.0 0.00 0.00 0.00 36 1012.4
20260505021034 60 333 2.0 10.0 0.00 0.00 0.00 36 1012.5
20260505020058 60 28 3.0 10.0 0.00 0.00 0.00 37 1012.4
20260505015058 60 55 4.0 11.0 0.00 0.00 0.00 36 1012.7
20260505014043 60 25 2.0 8.0 0.00 0.00 0.00 36 1012.8
20260505013107 60 3 2.0 7.0 0.00 0.00 0.00 35 1013.0
20260505012028 60 8 3.0 9.0 0.00 0.00 0.00 35 1013.1
20260505011052 60 39 3.0 10.0 0.00 0.00 0.00 35 1013.0
20260505010116 60 31 3.0 7.0 0.00 0.00 0.00 35 1013.2
20260505005037 60 298 2.0 9.0 0.00 0.00 0.00 35 1013.6
20260505004102 60 1 1.0 8.0 0.00 0.00 0.00 35 1013.9
20260505003022 61 22 2.0 9.0 0.00 0.00 0.00 36 1013.9
20260505002046 61 36 2.0 9.0 0.00 0.00 0.00 36 1013.9
20260505001111 61 79 4.0 10.0 0.00 0.00 0.00 36 1014.2
20260505000031 61 358 3.0 9.0 0.00 0.00 0.00 35 1014.5
20260504235057 60 53 2.0 8.0 0.00 0.00 0.00 37 1014.7
20260504234120 60 10 1.0 3.0 0.00 0.00 0.00 37 1014.9
20260504233041 60 62 1.0 8.0 0.00 0.00 0.00 37 1014.9
20260504232105 60 7 1.0 6.0 0.00 0.00 0.00 37 1015.1
20260504231025 60 354 1.0 10.0 0.00 0.00 0.00 38 1015.2
20260504230050 60 12 2.0 7.0 0.00 0.00 0.00 38 1015.2
20260504225154 60 359 2.0 6.0 0.00 0.00 0.00 39 1015.4
20260504224034 59 41 1.0 3.0 0.00 0.00 0.00 39 1015.3
20260504223139 60 10 1.0 6.0 0.00 0.00 0.00 39 1015.3
20260504222019 59 19 2.0 7.0 0.00 0.00 0.00 39 1015.4
20260504221043 59 59 2.0 8.0 0.00 0.00 0.00 39 1015.4
20260504220108 59 45 1.0 3.0 0.00 0.00 0.00 40 1015.4
20260504215029 59 7 1.0 4.0 0.00 0.00 0.00 40 1015.5
20260504214053 60 89 2.0 6.0 0.00 0.00 0.00 39 1015.5
20260504213117 60 64 3.0 8.0 0.00 0.00 0.00 38 1015.6
20260504212117 61 117 3.0 11.0 0.00 0.00 0.00 37 1015.7
20260504211102 61 140 3.0 13.0 0.00 0.00 0.00 37 1015.8
20260504210022 61 118 3.0 10.0 0.00 0.00 0.00 38 1015.8
20260504205127 61 129 4.0 11.0 0.00 0.00 0.00 38 1015.7
20260504204111 61 94 3.0 6.0 0.00 0.00 0.00 38 1015.9
20260504203032 61 119 2.0 8.0 0.00 0.00 0.00 38 1016.0
20260504202056 62 80 3.0 6.0 0.00 0.00 0.00 37 1016.1
20260504201027 62 99 1.0 3.0 0.00 0.00 0.00 38 1015.9
20260504200041 62 96 2.0 6.0 0.00 0.00 0.00 38 1015.8
20260504195105 62 95 2.0 7.0 0.00 0.00 0.00 38 1015.7
20260504194106 62 62 1.0 4.0 0.00 0.00 0.00 38 1015.6
20260504193050 63 144 2.0 8.0 0.00 0.00 0.00 37 1015.5
20260504192155 63 70 1.0 6.0 0.00 0.00 0.00 37 1015.5
20260504191035 63 87 2.0 7.0 0.00 0.00 0.00 36 1015.4
20260504190059 63 88 1.0 7.0 0.00 0.00 0.00 37 1015.5
20260504185020 63 46 0.0 4.0 0.00 0.00 0.00 38 1015.5
20260504184044 63 90 1.0 4.0 0.00 0.00 0.00 38 1015.5
20260504183109 63 84 1.0 6.0 0.00 0.00 0.00 38 1015.6
20260504182028 63 134 3.0 8.0 0.00 0.00 0.00 38 1015.6
20260504181054 63 49 1.0 6.0 0.00 0.00 0.00 38 1015.6
20260504180118 64 113 1.0 3.0 0.00 0.00 0.00 38 1015.4
20260504175039 64 83 1.0 4.0 0.00 0.00 0.00 38 1015.6
20260504174103 64 67 2.0 4.0 0.00 0.00 0.00 38 1015.6
20260504173103 64 113 4.0 9.0 0.00 0.00 0.00 38 1015.4
20260504172048 64 118 3.0 8.0 0.00 0.00 0.00 39 1015.6
20260504171112 65 124 3.0 9.0 0.00 0.00 0.00 38 1015.7